Regional Weather Roundup
Issued by NWS

Home | Current Version | Previous Version | Text Only | Print | Product List | Glossary Off
Versions: 1 2 3 4 5 6 7 8 9 10 11 12 13 14 15 16 17 18 19 20 21 22 23 24 25 26 27 28 29 30 31 32 33 34 35 36 37 38 39 40 41 42 43 44 45 46 47 48 49 50

949
ASUS44 KJAN 261003
RWRMS

MISSISSIPPI HOURLY WEATHER ROUNDUP
NATIONAL WEATHER SERVICE JACKSON MS
400 AM CST THU FEB 26 2015

NOTE: "FAIR: INDICATES FEW OR NO CLOUDS BELOW 12,000 FEET WITH NO
SIGNIFICANT WEATHER AND/OR OBSTRUCTIONS TO VISIBILITY.

MSZ001>002-007>008-010>013-018>021-025>028-034>036-261100-
NORTHWEST MISSISSIPPI

CITY           SKY/WX    TMP DP  RH WIND       PRES   REMARKS
CLARKSDALE     CLOUDY    28  28 100 CALM      29.95R VSB<1/4
CLEVELAND      CLOUDY    31  31 100 NW6       29.95R WCI  26
GREENWOOD      CLOUDY    32  31  96 N3        29.93R
GREENVILLE     CLOUDY    32  30  92 NW6       29.94R WCI  26
OLIVE BRANCH     N/A     25  25 100 CALM      29.91F VSB 0
OXFORD         CLOUDY    27  27 100 CALM      29.92R FOG
TUNICA         FOG       25  23  93 CALM      29.95R VSB 1/4
$$

MSZ003>006-009-014>017-022>024-029>033-037>039-261100-
NORTHEAST MISSISSIPPI

CITY           SKY/WX    TMP DP  RH WIND       PRES   REMARKS
COLUMBUS AFB   CLOUDY    32  30  93 NW6       29.89R WCI  26
CORINTH        FOG       28  27  93 CALM      29.89S VSB 1/4
GOLDN TRIANGLE CLOUDY    30  28  93 CALM      29.88R
STARKVILLE     CLOUDY    32  30  93 CALM      29.91R FOG
TUPELO         CLOUDY    30  28  92 N5        29.90S WCI  25
$$

MSZ040-058-261100-
CENTRAL MISSISSIPPI

CITY           SKY/WX    TMP DP  RH WIND       PRES   REMARKS
JACKSON INTL   CLOUDY    34  31  88 N5        29.93R WCI  30
JACKSON HAWKNS CLOUDY    33  31  92 CALM      29.93R
MERIDIAN KEY   CLOUDY    33  31  92 N8        29.91R WCI  26
MERIDIAN NAS   CLOUDY    33  31  92 NW5       29.90R WCI  29
VICKSBURG      CLOUDY    34  31  88 CALM      29.95S
$$

MSZ059>079-261100-
SOUTH MISSISSIPPI

CITY           SKY/WX    TMP DP  RH WIND       PRES   REMARKS
HATTIESBURG    CLOUDY    36  35  96 NW8       29.92R FOG     WCI  30
MCCOMB         CLOUDY    34  32  92 N7        29.92R WCI  28
NATCHEZ        CLOUDY    34  30  86 N7        29.95R WCI  28
PINE BELT      CLOUDY    36  30  80 NW6       29.91R WCI  31
$$

MSZ080>082-261100-
COASTAL MISSISSIPPI

CITY           SKY/WX    TMP DP  RH WIND       PRES   REMARKS
BILOXI         CLOUDY    39  36  89 N13G24    29.86S WCI  31
PASCAGOULA     CLOUDY    38  36  92 N7        29.87R WCI  33
GULFPORT       CLOUDY    37  33  85 N13G24    29.88R WCI  29
$$



USA.gov is the U.S. government's official web portal to all federal, state and local government web resources and services.